This demonstration page uses our WeatherBlox Daily Observations layout. Learn more.

39.92423, -83.80882

Hourly Observations for June 11, 2020

Temp ( °F °C ) Dew Point ( °F °C ) Humidity (%) Winds ( mph kmh ) Pressure ( in mb ) Visibility ( mi km ) Precip ( " mm )
12:56 am 00:56 Partly Cloudy 69 20.6 59 15 70 70 W 17 28 29.84 1011 10 16.0934 0 0
1:56 am 01:56 Cloudy 68 20 60 15.6 76 76 WSW 14 22 29.87 1012 10 16.0934 0 0
2:56 am 02:56 Cloudy with Light Rain 64 17.8 61 16.1 90 90 WNW 24 39 29.9 1013 7 11.26538 0.001 0.001
3:56 am 03:56 Cloudy 63 17.2 61 16.1 93 93 W 14 22 29.93 1014 10 16.0934 0.001 0.001
4:56 am 04:56 Cloudy 62 16.7 59 15 90 90 WNW 12 19 29.97 1015 10 16.0934 0 0
5:03 am 05:03 Cloudy 63 17 59 15 88 88 WNW 14 22 29.97 1015 10 16.0934 0 0
5:56 am 05:56 Clear 60 15.6 58 14.4 93 93 W 8 13 30.01 1016 10 16.0934 0 0
6:56 am 06:56 Sunny 61 16.1 58 14.4 90 90 W 9 15 30.04 1017 10 16.0934 0 0
7:56 am 07:56 Sunny 63 17.2 58 14.4 84 84 W 12 19 30.06 1018 7 11.26538 0 0
8:56 am 08:56 Sunny 66 18.9 58 14.4 75 75 WNW 13 20 30.09 1019 10 16.0934 0 0
9:56 am 09:56 Sunny 68 20 58 14.4 70 70 W 12 19 30.11 1020 10 16.0934 0 0
10:56 am 10:56 Partly Cloudy 70 21.1 58 14.4 66 66 WSW 9 15 30.11 1020 10 16.0934 0 0
11:56 am 11:56 Partly Cloudy 74 23.3 54 12.2 50 50 WNW 14 22 30.13 1020 10 16.0934 0 0
12:56 pm 12:56 Partly Cloudy 75 23.9 53 11.7 46 46 WNW 10 17 30.14 1021 10 16.0934 0 0
1:56 pm 13:56 Mostly Sunny 77 25 54 12.2 45 45 W 16 26 30.14 1021 10 16.0934 0 0
2:56 pm 14:56 Mostly Sunny 78 25.6 54 12.2 43 43 W 14 22 30.14 1021 10 16.0934 0.01 0.254
3:56 pm 15:56 Mostly Sunny 79 26.1 52 11.1 39 39 W 15 24 30.14 1021 10 16.0934 0 0
4:56 pm 16:56 Mostly Sunny 79 26.1 51 10.6 38 38 WNW 17 28 30.14 1021 10 16.0934 0.09 2.286
5:56 pm 17:56 Mostly Sunny 80 26.7 49 9.4 34 34 W 16 26 30.14 1021 10 16.0934 0 0
6:56 pm 18:56 Sunny 78 25.6 46 7.8 32 32 NW 15 24 30.15 1021 10 16.0934 0 0
7:56 pm 19:56 Sunny 76 24.4 46 7.8 35 35 WNW 8 13 30.16 1022 10 16.0934 0.04 1.016
8:56 pm 20:56 Sunny 70 21.1 50 10 49 49 WNW 5 7 30.18 1022 10 16.0934 0.73 18.542
9:56 pm 21:56 Clear 65 18.3 53 11.7 66 66 SW 5 7 30.19 1022 10 16.0934 0.77 19.558
10:56 pm 22:56 Clear 63 17.2 53 11.7 70 70 SSW 3 6 30.2 1023 10 16.0934 0.22 5.588
11:56 pm 23:56 Clear 63 17.2 52 11.1 68 68 Calm 30.2 1023 10 16.0934 0.06 1.524

Powered by AerisWeather